SL-8 DEB

Satellite information

Favourite Embed

Satellite Type and Status

DEBRISIN ORBIT

Key statistics

Satellite SL-8 DEB at a glance.

Uptime

17372

Days in orbit

Revolutions

≈ 14.5

Per day

Orbit

LEO

Low Earth Orbit

Inclination

82.9

Latest

Satellite identification and parameters

Extended collection of information and parameters for SL-8 DEB.

Object identification

Identified? True

Debris? True

Object name: SL-8 DEB

International designator: 1978-034C

Object number (NORAD): 13474

Object ID (CCSDS): 13474

Country: COMMONWEALTH OF INDEPENDENT STATES (CIS)

Current information (Y/N): Y

RCS size: SMALL

Orbital parameters

Period: 99.286 minutes

Inclination: 82.9176 deg

SMA: 7102.632 km

Apoapsis: 732.546 km

Periapsis: 716.447 km

RAAN: 125.2138 deg

Eccentricy: 0.00113333

Argument of periapsis: 197.5606 deg

Mean anomaly: 289.6477 deg

Mean motion: 14.50353375 rev/day

Mean motion (dot): 0.00010356 rev/day2

B* drag term: 0.0026463683 1/REarth

Two-line elements (TLE)

Creation date: Oct. 21, 2025, 6:24 p.m.

Reference frame: TEME

Reference center: EARTH

Epoch: Oct. 21, 2025, 12:01 a.m. UTC

TLE line 0: 0 SL-8 DEB

TLE line 1: 1 13474U 78034C 25294.00120444 .00010356 00000-0 26464-2 0 9997

TLE line 2: 2 13474 82.9176 125.2138 0011333 197.5606 289.6477 14.50353375427890

Live tracking on map

Real-time ground track for satellite SL-8 DEB.

In-orbit conjunctions

A list of the most updated potential collisions computed for object SL-8 DEB.

Target Orbit TCA Probability of collision Miss distance Type
CZ-6A DEB SSO 2025-10-19 09:51:28 0.0007039283 77.0 (m) DEBRIS
CZ-4 DEB SSO 2025-10-05 00:26:27 0.0001889685 119.0 (m) DEBRIS
COSMOS 2251 DEB LEO 2024-09-15 12:32:50 0.0001452998 276.0 (m) DEBRIS

Associated space launch

Civilian navigation satellite equivalent to the purely military Parus

SL-8 DEB was lifted into orbit during the mission ‘Kosmos-3M | Tsikada 4’, on board a Kosmos-3M space rocket.

The launch took place on March 31, 1978, 2:01 p.m. from 132/1 (132L).

For more information about the launch, click the button.

Launch to space Kosmos-3M | Tsikada 4
Kosmos-3M | Tsikada 4

Agency: N/A

Status: Launch Successful

Launch date: March 31, 1978, 2:01 p.m. UTC

Rocket: Kosmos-3M

Launch pad: 132/1 (132L)

Location: Plesetsk Cosmodrome, Russian Federation

...

Latest news about this satellite

There are no fresh news available about this satellite. Check back as we update our databases every day.


Newsletter sign-up

Weekly statistics, charts and insights to help you stay on top of the space industry.